Weather in Mantova

Italy     45°09′55″N   10°47′32″E
temp.,
°C
wind,
m/s
gust,
m/s
humid.,
%
clouds,
%
prec.,
mm/h
press.,
hPa
HPBL,
m
12 may, wed
wed1223:00+13ese4598100 5.6 1009246
02:00+13wnw469599 6.8 1008297
05:00+12w3696100 0.6 1007198
08:00+12w589163 0.6 1008279
11:00+17wnw336764 0.0 1009946
14:00+19ssw0158100 0.1 10081255
17:00+19se226493 0.5 1007984
20:00+15s2281100 2.3 100732
13 may, thu
thu1323:00+13ssw2287100 1.3 100817
02:00+12wsw3695100 1.5 1007178
05:00+12wsw3594100 0.9 1006158
08:00+13wsw2589100 0.9 1006229
11:00+16w3475100 0.1 1006646
14:00+19wsw126134 0.1 10041089
17:00+19sse2362100 1.8 10031134
20:00+15ssw228083 4.3 100433
14 may, fri
fri1423:00+11ese349066 1.9 100671
02:00+11sse249424 2.0 1006120
05:00+11wnw009499 0.2 100721
08:00+13ese118798 0.3 1008262
11:00+14ne117997 0.0 1009540
14:00+17ese3370100 1.2 1008982
17:00+14e3586100 4.0 1008354
20:00+12ese2495100 9.0 1009172
15 may, sat
sat1523:00+11ese2396100 3.8 1009125
02:00+11sw1192100 3.8 100915
05:00+11w1194100 0.2 100925
08:00+12w239079 0.8 1011181
11:00+15w327435 0.3 1011764
14:00+18se016477 1.9 10101272
17:00+18ne116463 1.9 10101029
20:00+15e117770 1.9 101013
16 may, sun
sun1623:00+12sse118613 0.0 101111
02:00+11sw129016 0.0 101117
05:00+10sw11925 0.0 101112
08:00+13se008443 0.0 1012161
11:00+18wsw117027 0.0 1012837
14:00+21wsw225616 0.1 10111523
17:00+22w115158 0.0 10101579
20:00+18e1271100 0.0 101019